FW7227 Weather Reports


time (UTC)temp
C
wind
direction
speed
KPH
gust
KPH
rain 1hr
cm
rain 24hr
cm
rain mn
cm
humidity
%
barometer
mb
20260906174602 17 360 3.2 6.4 0.00 0.00 0.00 66 1024.8
20260906174057 17 360 3.2 6.4 0.00 0.00 0.00 65 1024.8
20260906173557 18 360 3.2 6.4 0.00 0.00 0.00 64 1024.8
20260906173105 18 360 3.2 6.4 0.00 0.00 0.00 63 1024.8
20260906172557 18 144 1.6 8.0 0.00 0.00 0.00 63 1024.9
20260906172056 18 146 3.2 8.0 0.00 0.00 0.00 62 1024.9
20260906171606 18 360 4.8 8.0 0.00 0.00 0.00 62 1025.0
20260906171056 18 145 3.2 8.0 0.00 0.00 0.00 63 1025.1
20260906170557 18 144 3.2 9.7 0.00 0.00 0.00 63 1025.1
20260906170106 18 360 4.8 9.7 0.00 0.00 0.00 61 1025.1
20260906165558 18 162 4.8 8.0 0.00 0.00 0.00 60 1025.1
20260906165059 18 360 3.2 6.4 0.00 0.00 0.00 61 1025.1
20260906164603 18 360 3.2 6.4 0.00 0.00 0.00 61 1025.2
20260906164059 18 360 3.2 6.4 0.00 0.00 0.00 61 1025.2
20260906163557 18 209 0.0 4.8 0.00 0.00 0.00 63 1025.1
20260906163123 18 0 0.0 0.0 0.00 0.00 0.00 61 1025.2
20260906162557 18 0 0.0 1.6 0.00 0.00 0.00 58 1025.3
20260906162056 18 0 0.0 4.8 0.00 0.00 0.00 56 1025.3
20260906161612 18 360 0.0 4.8 0.00 0.00 0.00 57 1025.2
20260906161056 19 0 1.6 4.8 0.00 0.00 0.00 56 1025.3
20260906160556 20 245 0.0 4.8 0.00 0.00 0.00 54 1025.4
20260906160108 20 0 0.0 6.4 0.00 0.00 0.00 54 1025.4
20260906155557 20 245 3.2 6.4 0.00 0.00 0.00 53 1025.5
20260906155100 20 245 3.2 6.4 0.00 0.00 0.00 54 1025.6
20260906154603 20 245 1.6 6.4 0.00 0.00 0.00 54 1025.6
20260906154057 20 245 1.6 8.0 0.00 0.00 0.00 54 1025.6
20260906153559 20 0 0.0 8.0 0.00 0.00 0.00 52 1025.7
20260906153121 20 0 3.2 8.0 0.00 0.00 0.00 54 1025.7
20260906152600 20 0 3.2 16.1 0.00 0.00 0.00 54 1025.6
20260906152056 20 220 3.2 16.1 0.00 0.00 0.00 54 1025.6
20260906151611 20 223 8.0 16.1 0.00 0.00 0.00 55 1025.6
20260906151056 20 0 0.0 4.8 0.00 0.00 0.00 53 1025.8
20260906150556 20 0 0.0 4.8 0.00 0.00 0.00 53 1025.7
20260906150109 20 327 0.0 6.4 0.00 0.00 0.00 55 1025.8
20260906145559 20 0 3.2 12.9 0.00 0.00 0.00 54 1025.8
20260906145058 20 0 1.6 12.9 0.00 0.00 0.00 53 1025.8
20260906144600 20 335 3.2 12.9 0.00 0.00 0.00 53 1025.9
20260906144100 20 0 0.0 11.3 0.00 0.00 0.00 53 1025.9
20260906143557 20 0 4.8 14.5 0.00 0.00 0.00 52 1025.9
20260906143104 20 251 3.2 14.5 0.00 0.00 0.00 56 1026.0
20260906142557 20 259 6.4 14.5 0.00 0.00 0.00 52 1025.9
20260906142058 20 242 4.8 12.9 0.00 0.00 0.00 54 1025.9
20260906141607 20 304 4.8 12.9 0.00 0.00 0.00 53 1026.0
20260906141056 20 276 4.8 16.1 0.00 0.00 0.00 53 1025.9
20260906140556 20 281 8.0 16.1 0.00 0.00 0.00 53 1026.0
20260906140108 20 259 4.8 11.3 0.00 0.00 0.00 51 1026.0
20260906135557 20 0 1.6 11.3 0.00 0.00 0.00 53 1026.1
20260906135057 19 307 3.2 11.3 0.00 0.00 0.00 55 1026.1
20260906134600 20 325 4.8 11.3 0.00 0.00 0.00 52 1026.1
20260906134058 20 304 3.2 12.9 0.00 0.00 0.00 53 1026.1
20260906133559 20 232 0.0 14.5 0.00 0.00 0.00 56 1026.3
20260906133124 20 227 6.4 14.5 0.00 0.00 0.00 52 1026.3
20260906132557 20 333 4.8 14.5 0.00 0.00 0.00 53 1026.4
20260906132057 20 293 1.6 12.9 0.00 0.00 0.00 55 1026.4
20260906131617 19 0 3.2 17.7 0.00 0.00 0.00 53 1026.4
20260906131057 20 314 4.8 17.7 0.00 0.00 0.00 53 1026.4
20260906130559 20 311 4.8 17.7 0.00 0.00 0.00 53 1026.5
20260906130113 20 360 4.8 16.1 0.00 0.00 0.00 53 1026.6
20260906125602 19 0 6.4 20.9 0.00 0.23 0.00 56 1026.6
20260906125058 19 250 3.2 20.9 0.00 0.23 0.00 53 1026.7
20260906124600 20 360 4.8 16.1 0.00 0.23 0.00 55 1026.7
20260906124059 19 360 3.2 14.5 0.00 0.23 0.00 55 1026.7
20260906123556 19 360 6.4 17.7 0.00 0.23 0.00 54 1026.8
20260906123057 19 360 0.0 17.7 0.00 0.23 0.00 53 1026.7
20260906122558 20 360 9.7 17.7 0.00 0.23 0.00 51 1026.8
20260906122059 20 360 3.2 16.1 0.00 0.23 0.00 54 1026.8
20260906121603 19 360 8.0 16.1 0.00 0.23 0.00 56 1026.8
20260906121057 19 360 4.8 16.1 0.00 0.23 0.00 55 1026.9
20260906120558 19 360 6.4 16.1 0.00 0.23 0.00 55 1026.7
20260906120106 18 360 6.4 16.1 0.00 0.23 0.00 53 1026.7
20260906115558 19 360 6.4 16.1 0.00 0.23 0.00 55 1026.8
20260906115056 18 360 6.4 14.5 0.00 0.23 0.00 53 1026.8
20260906114606 18 360 4.8 14.5 0.00 0.23 0.00 51 1026.8
20260906114057 19 360 4.8 16.1 0.00 0.23 0.00 52 1027.0
20260906113556 18 360 6.4 16.1 0.00 0.23 0.00 54 1027.0
20260906113104 18 360 4.8 16.1 0.00 0.23 0.00 55 1027.0
20260906112557 18 360 6.4 16.1 0.00 0.23 0.00 52 1027.0
20260906112057 18 360 3.2 20.9 0.00 0.23 0.00 58 1027.0
20260906111603 18 360 9.7 20.9 0.00 0.23 0.00 55 1027.1
20260906111058 19 360 6.4 20.9 0.00 0.23 0.00 52 1027.1
20260906110558 19 360 4.8 19.3 0.00 0.23 0.00 57 1027.1
20260906105558 19 360 4.8 20.9 0.00 0.23 0.00 59 1027.1
20260906105058 19 360 11.3 20.9 0.00 0.23 0.00 56 1027.1
20260906104608 18 360 4.8 16.1 0.00 0.23 0.00 56 1027.1
20260906104057 18 360 6.4 19.3 0.00 0.23 0.00 55 1027.2
20260906103556 19 360 8.0 19.3 0.00 0.23 0.00 56 1027.1
20260906103111 19 360 8.0 22.5 0.00 0.23 0.00 58 1027.2
20260906102557 18 360 9.7 22.5 0.00 0.23 0.00 57 1027.2
20260906102057 18 360 11.3 22.5 0.00 0.23 0.00 56 1027.2
20260906101603 18 360 8.0 20.9 0.00 0.23 0.00 59 1027.1
20260906101059 18 360 9.7 20.9 0.00 0.23 0.00 57 1027.0
20260906100558 18 360 6.4 16.1 0.00 0.23 0.00 58 1027.0
20260906100111 18 360 8.0 16.1 0.00 0.23 0.00 60 1027.0
20260906095601 17 360 4.8 17.7 0.00 0.23 0.00 60 1027.0
20260906095057 17 360 8.0 17.7 0.00 0.23 0.00 60 1027.1
20260906094621 17 360 4.8 17.7 0.00 0.23 0.00 62 1027.3
20260906094056 17 360 4.8 16.1 0.00 0.23 0.00 63 1027.2
20260906093559 17 360 6.4 16.1 0.00 0.23 0.00 63 1027.3
20260906093107 17 360 6.4 16.1 0.00 0.23 0.00 62 1027.4
20260906092559 17 360 8.0 16.1 0.00 0.23 0.00 62 1027.4
20260906092056 17 360 4.8 16.1 0.00 0.23 0.00 64 1027.3
20260906091604 17 360 6.4 16.1 0.00 0.23 0.00 64 1027.3
20260906091102 17 360 6.4 16.1 0.00 0.23 0.00 65 1027.3
20260906090556 17 360 4.8 16.1 0.00 0.23 0.00 65 1027.2
20260906090115 17 360 8.0 16.1 0.00 0.23 0.00 65 1027.2
20260906085559 17 360 3.2 14.5 0.00 0.23 0.00 66 1027.2
20260906085100 17 279 6.4 16.1 0.00 0.23 0.00 67 1027.3
20260906084605 16 360 6.4 16.1 0.00 0.23 0.00 66 1027.3
20260906084056 16 360 6.4 16.1 0.00 0.23 0.00 66 1027.3
20260906083556 16 360 3.2 12.9 0.00 0.23 0.00 68 1027.2
20260906083105 16 360 6.4 14.5 0.00 0.23 0.00 68 1027.2
20260906082556 16 360 6.4 14.5 0.00 0.23 0.00 69 1027.3
20260906082056 15 360 1.6 14.5 0.00 0.23 0.00 68 1027.2
20260906081603 15 360 4.8 14.5 0.00 0.23 0.00 69 1027.2
20260906081058 16 360 4.8 12.9 0.00 0.23 0.00 68 1027.1
20260906080556 15 360 6.4 12.9 0.00 0.23 0.00 71 1027.1
20260906080104 15 360 4.8 9.7 0.00 0.23 0.00 72 1027.1
20260906075556 15 360 3.2 9.7 0.00 0.23 0.00 73 1027.1
20260906075056 15 360 4.8 9.7 0.00 0.23 0.00 73 1027.0
20260906074600 15 360 1.6 12.9 0.00 0.23 0.00 74 1027.0
20260906074056 15 360 4.8 14.5 0.00 0.23 0.00 74 1027.0
20260906073601 14 360 8.0 16.1 0.00 0.23 0.00 75 1027.0
20260906073104 14 360 8.0 16.1 0.00 0.23 0.00 75 1027.1
20260906072557 14 360 4.8 14.5 0.00 0.23 0.00 77 1027.1
20260906072056 13 360 8.0 14.5 0.00 0.23 0.00 77 1027.1
20260906071602 13 360 6.4 16.1 0.00 0.23 0.00 77 1027.1
20260906071056 13 360 6.4 16.1 0.00 0.23 0.00 78 1027.0
20260906070557 13 360 9.7 19.3 0.00 0.23 0.00 78 1026.8
20260906070104 13 360 6.4 19.3 0.00 0.23 0.00 78 1026.8
20260906065600 13 360 9.7 19.3 0.00 0.23 0.00 79 1026.8
20260906065056 13 360 8.0 16.1 0.00 0.23 0.00 79 1026.8
20260906064559 12 360 6.4 16.1 0.00 0.23 0.00 80 1026.8
20260906064058 12 360 6.4 17.7 0.00 0.23 0.00 80 1026.8
20260906063556 12 360 6.4 17.7 0.00 0.23 0.00 80 1026.7
20260906063103 12 360 9.7 17.7 0.00 0.23 0.00 81 1026.7
20260906062556 12 360 9.7 16.1 0.00 0.23 0.00 82 1026.7
20260906062057 12 360 4.8 14.5 0.00 0.23 0.00 83 1026.5
20260906061607 11 360 4.8 14.5 0.00 0.23 0.00 83 1026.4
20260906061056 11 360 4.8 14.5 0.00 0.23 0.00 84 1026.2
20260906060556 11 360 8.0 12.9 0.00 0.23 0.00 84 1026.3
20260906060107 11 360 4.8 9.7 0.00 0.23 0.00 85 1026.3
20260906055556 11 360 4.8 12.9 0.00 0.23 0.00 86 1026.2
20260906055056 11 360 4.8 12.9 0.00 0.23 0.00 87 1026.1
20260906054559 10 360 3.2 12.9 0.00 0.23 0.00 87 1026.2
20260906054058 10 360 4.8 12.9 0.00 0.23 0.00 88 1026.2
20260906053556 10 360 4.8 9.7 0.00 0.23 0.00 88 1026.3
20260906053058 10 360 3.2 9.7 0.00 0.23 0.00 89 1026.1
20260906052559 10 360 1.6 6.4 0.00 0.23 0.00 89 1026.1
20260906052059 10 360 3.2 8.0 0.00 0.23 0.00 89 1025.9
20260906051603 10 360 3.2 8.0 0.00 0.23 0.00 89 1025.8
20260906051058 10 360 4.8 9.7 0.00 0.23 0.00 89 1025.8
20260906050558 10 360 3.2 12.9 0.00 0.23 0.00 89 1025.8
20260906050105 10 360 4.8 12.9 0.00 0.23 0.00 90 1025.7
20260906045558 10 360 4.8 12.9 0.00 0.23 0.00 89 1025.7
20260906045058 10 360 4.8 9.7 0.00 0.23 0.00 90 1025.7
20260906044559 10 360 3.2 9.7 0.00 0.23 0.00 89 1025.7
20260906044058 10 360 3.2 9.7 0.00 0.23 0.00 89 1025.5
20260906043557 10 360 4.8 14.5 0.00 0.23 0.00 89 1025.5
20260906043102 10 360 4.8 14.5 0.00 0.23 0.00 89 1025.5
20260906042557 10 360 4.8 12.9 0.00 0.23 0.00 89 1025.5
20260906042057 10 360 8.0 12.9 0.00 0.23 0.00 89 1025.5
20260906041605 10 360 4.8 12.9 0.00 0.23 0.00 89 1025.4
20260906041058 10 360 4.8 12.9 0.00 0.23 0.00 89 1025.3
20260906040558 10 360 4.8 12.9 0.00 0.23 0.00 89 1025.2
20260906040104 10 360 4.8 12.9 0.00 0.23 0.00 89 1025.3
20260906035558 10 360 4.8 12.9 0.00 0.23 0.00 88 1025.2
20260906035058 10 360 4.8 12.9 0.00 0.23 0.00 88 1025.3
20260906034608 10 360 4.8 14.5 0.00 0.23 0.00 88 1025.4
20260906034057 10 360 6.4 14.5 0.00 0.23 0.00 88 1025.4
20260906033600 10 360 6.4 14.5 0.00 0.23 0.00 88 1025.5
20260906033108 10 360 4.8 14.5 0.00 0.23 0.00 88 1025.6
20260906032558 10 360 3.2 14.5 0.00 0.23 0.00 88 1025.6
20260906032057 10 360 4.8 14.5 0.00 0.23 0.00 88 1025.6
20260906031603 10 360 6.4 17.7 0.00 0.23 0.00 88 1025.5
20260906031058 10 360 8.0 17.7 0.00 0.23 0.00 88 1025.5
20260906030558 10 360 8.0 17.7 0.00 0.23 0.00 88 1025.4
20260906030109 10 360 6.4 17.7 0.00 0.23 0.00 88 1025.3
20260906025558 10 360 6.4 14.5 0.00 0.23 0.00 88 1025.3
20260906025058 10 360 6.4 17.7 0.00 0.23 0.00 88 1025.2
20260906024608 10 360 6.4 17.7 0.00 0.23 0.00 87 1025.2
20260906024057 10 360 4.8 14.5 0.00 0.23 0.00 87 1025.1
20260906023557 10 360 6.4 16.1 0.00 0.23 0.00 87 1025.1
20260906023106 10 360 6.4 16.1 0.00 0.23 0.00 87 1025.1
20260906022557 10 360 8.0 16.1 0.00 0.23 0.00 87 1025.0
20260906022058 11 360 6.4 14.5 0.00 0.23 0.00 87 1025.0
20260906021607 11 360 4.8 14.5 0.00 0.23 0.00 87 1025.1
20260906021059 11 360 6.4 14.5 0.00 0.23 0.00 86 1025.1
20260906020557 11 360 6.4 14.5 0.00 0.23 0.00 86 1025.0
20260906020108 11 360 8.0 14.5 0.00 0.23 0.00 87 1024.9
20260906015557 11 360 6.4 14.5 0.00 0.23 0.00 86 1025.0
20260906015057 11 360 6.4 14.5 0.00 0.23 0.00 86 1024.9
20260906014611 11 360 6.4 14.5 0.00 0.23 0.00 86 1024.9
20260906014059 11 360 6.4 12.9 0.00 0.23 0.00 86 1024.9
20260906013558 11 360 6.4 12.9 0.00 0.23 0.00 86 1024.8
20260906013100 11 360 4.8 12.9 0.00 0.23 0.00 85 1024.8
20260906012557 11 360 6.4 14.5 0.00 0.23 0.00 85 1024.7
20260906012059 11 360 6.4 14.5 0.00 0.23 0.00 85 1024.7
20260906011613 11 360 6.4 16.1 0.00 0.23 0.00 85 1024.5
20260906011058 11 360 6.4 16.1 0.00 0.23 0.00 85 1024.6
20260906010557 11 360 6.4 16.1 0.00 0.23 0.00 84 1024.6
20260906010108 11 360 6.4 16.1 0.00 0.23 0.00 84 1024.5
20260906005558 11 360 4.8 14.5 0.00 0.23 0.00 84 1024.6
20260906005058 11 360 4.8 19.3 0.00 0.23 0.00 84 1024.6
20260906004605 11 360 6.4 19.3 0.00 0.23 0.00 84 1024.5
20260906004058 11 360 4.8 14.5 0.00 0.23 0.00 83 1024.5
20260906003556 11 360 4.8 19.3 0.00 0.23 0.00 83 1024.5
20260906003113 11 360 6.4 19.3 0.00 0.23 0.00 83 1024.4
20260906002557 11 360 6.4 14.5 0.00 0.23 0.00 83 1024.4
20260906002101 11 360 4.8 17.7 0.00 0.23 0.00 83 1024.3
20260906001602 12 360 4.8 17.7 0.00 0.23 0.00 82 1024.3
20260906001101 12 360 6.4 16.1 0.00 0.23 0.00 82 1024.3
20260906000557 12 360 8.0 17.7 0.00 0.23 0.00 82 1024.3
20260906000108 12 360 6.4 19.3 0.00 0.23 0.00 82 1024.2
20260905235557 12 360 6.4 19.3 0.00 0.23 0.00 82 1024.2
20260905235059 12 360 9.7 19.3 0.00 0.23 0.00 82 1024.2
20260905234606 12 360 6.4 17.7 0.00 0.23 0.00 82 1024.2
20260905234058 12 360 8.0 16.1 0.00 0.23 0.00 82 1024.2
20260905233558 12 360 8.0 16.1 0.00 0.23 0.00 81 1024.1
20260905233125 12 360 8.0 17.7 0.00 0.23 0.00 81 1024.1
20260905232558 12 360 9.7 17.7 0.00 0.23 0.00 81 1024.1
20260905232058 12 360 8.0 19.3 0.00 0.23 0.00 81 1024.0
20260905231607 12 248 8.0 20.9 0.00 0.23 0.00 81 1024.0
20260905231057 12 268 9.7 20.9 0.00 0.23 0.00 81 1023.9
20260905230601 12 275 9.7 17.7 0.00 0.23 0.00 80 1023.9
20260905230109 12 257 6.4 16.1 0.00 0.23 0.00 80 1023.8
20260905225556 12 277 9.7 20.9 0.00 0.23 0.00 80 1023.7
20260905225058 12 271 11.3 20.9 0.00 0.23 0.00 80 1023.7
20260905224615 12 262 9.7 19.3 0.00 0.23 0.00 80 1023.7
20260905224058 13 250 9.7 22.5 0.00 0.23 0.00 79 1023.8
20260905223558 13 267 9.7 22.5 0.00 0.23 0.00 79 1023.7
20260905223108 13 268 8.0 20.9 0.00 0.23 0.00 79 1023.6
20260905222601 13 265 9.7 17.7 0.00 0.23 0.00 79 1023.7
20260905222057 13 275 8.0 16.1 0.00 0.23 0.00 79 1023.6
20260905221607 13 278 8.0 17.7 0.00 0.23 0.00 79 1023.5
20260905221058 13 288 8.0 17.7 0.00 0.23 0.00 79 1023.5
20260905220557 13 272 9.7 17.7 0.00 0.23 0.00 79 1023.5
20260905220105 13 252 6.4 17.7 0.00 0.23 0.00 79 1023.6
20260905215558 13 273 8.0 17.7 0.00 0.23 0.23 79 1023.5
20260905215058 13 268 8.0 19.3 0.00 0.23 0.23 78 1023.5
20260905214605 13 273 9.7 19.3 0.00 0.23 0.23 78 1023.4
20260905214057 13 270 8.0 16.1 0.00 0.23 0.23 78 1023.3
20260905213558 13 252 8.0 17.7 0.00 0.23 0.23 77 1023.3
20260905213106 13 360 6.4 20.9 0.00 0.23 0.23 77 1023.2
20260905212557 13 245 11.3 20.9 0.00 0.23 0.23 77 1023.2
20260905212058 13 287 9.7 17.7 0.00 0.23 0.23 77 1023.1
20260905211604 13 264 8.0 17.7 0.00 0.23 0.23 77 1023.1
20260905211057 13 360 9.7 19.3 0.00 0.23 0.23 77 1023.0
20260905210556 13 360 8.0 20.9 0.00 0.23 0.23 77 1022.9
20260905205558 13 360 11.3 19.3 0.00 0.23 0.23 77 1022.9
20260905205058 13 262 8.0 19.3 0.00 0.23 0.23 77 1022.8
20260905204606 13 276 9.7 19.3 0.00 0.23 0.23 77 1022.7
20260905204057 14 252 9.7 20.9 0.00 0.23 0.23 77 1022.7
20260905203559 14 360 8.0 20.9 0.00 0.23 0.23 77 1022.6
20260905203106 14 360 9.7 20.9 0.00 0.23 0.23 76 1022.7
20260905202600 14 279 6.4 22.5 0.00 0.23 0.23 76 1022.6
20260905202100 14 288 9.7 22.5 0.00 0.23 0.23 75 1022.5
20260905201613 14 257 9.7 20.9 0.00 0.23 0.23 75 1022.6
20260905201058 14 259 11.3 20.9 0.00 0.23 0.23 75 1022.5
20260905200557 14 281 9.7 20.9 0.00 0.23 0.23 75 1022.5
20260905200104 14 259 11.3 20.9 0.00 0.23 0.23 75 1022.6
20260905195556 15 263 12.9 19.3 0.00 0.23 0.23 75 1022.5
20260905195057 15 270 11.3 19.3 0.00 0.23 0.23 76 1022.4
20260905194607 15 360 8.0 19.3 0.00 0.23 0.23 75 1022.4
20260905194100 15 360 11.3 22.5 0.00 0.23 0.23 75 1022.4
20260905193559 15 360 9.7 22.5 0.00 0.23 0.23 75 1022.3
20260905193104 15 360 12.9 22.5 0.00 0.23 0.23 75 1022.2
20260905192558 15 360 8.0 19.3 0.00 0.23 0.23 75 1022.1
20260905192057 15 360 9.7 19.3 0.00 0.23 0.23 74 1022.1
20260905191610 15 360 11.3 20.9 0.00 0.23 0.23 74 1022.0
20260905191057 15 360 9.7 22.5 0.00 0.23 0.23 74 1021.9
20260905190556 15 360 9.7 22.5 0.00 0.23 0.23 74 1021.8
20260905190132 15 360 11.3 20.9 0.00 0.23 0.23 74 1021.8
20260905185556 15 360 11.3 20.9 0.00 0.23 0.23 74 1021.8
20260905185058 15 360 11.3 20.9 0.00 0.23 0.23 75 1021.8
20260905184620 15 360 11.3 20.9 0.00 0.23 0.23 74 1021.7
20260905184101 15 360 8.0 22.5 0.00 0.23 0.23 74 1021.6
20260905183559 15 360 11.3 22.5 0.00 0.23 0.23 74 1021.5
20260905183109 15 360 9.7 17.7 0.00 0.23 0.23 74 1021.4
20260905182557 15 360 8.0 22.5 0.00 0.23 0.23 73 1021.4
20260905182058 16 360 8.0 22.5 0.00 0.23 0.23 72 1021.2
20260905181603 16 360 9.7 24.1 0.00 0.23 0.23 71 1021.0
20260905181057 16 360 14.5 24.1 0.00 0.23 0.23 71 1020.9
20260905180557 16 360 9.7 25.7 0.00 0.23 0.23 71 1020.9
20260905180100 16 360 9.7 25.7 0.00 0.23 0.23 71 1020.9
20260905175557 16 360 11.3 25.7 0.00 0.33 0.23 71 1020.8
20260905175057 16 360 11.3 22.5 0.00 0.33 0.23 71 1020.8
20260905174603 16 360 11.3 22.5 0.00 0.33 0.23 71 1020.7